GW1898 Weather Reports


time (UTC)temp
C
wind
direction
speed
KPH
gust
KPH
rain 1hr
cm
rain 24hr
cm
rain mn
cm
humidity
%
barometer
mb
20260510083042 12 0 0.0 0.0 0.00 0.00 0.00 95 1011.1
20260510081548 12 0 0.0 0.0 0.00 0.00 0.00 95 1011.1
20260510080041 11 0 0.0 0.0 0.00 0.00 0.00 94 1011.1
20260510074541 12 0 0.0 0.0 0.00 0.00 0.00 93 1010.8
20260510073058 12 0 0.0 0.0 0.00 0.00 0.00 93 1010.6
20260510071558 12 0 0.0 0.0 0.00 0.00 0.00 92 1010.6
20260510070047 12 0 0.0 0.0 0.00 0.00 0.00 92 1010.5
20260510064550 12 0 0.0 0.0 0.00 0.00 0.00 92 1010.4
20260510063046 12 0 0.0 0.0 0.00 0.00 0.00 91 1010.3
20260510061538 13 0 0.0 0.0 0.00 0.00 0.00 91 1010.2
20260510060050 13 0 0.0 0.0 0.00 0.00 0.00 91 1010.2
20260510054544 13 0 0.0 0.0 0.00 0.00 0.00 90 1010.1
20260510053046 13 0 0.0 0.0 0.00 0.00 0.00 89 1010.2
20260510051544 13 0 0.0 0.0 0.00 0.00 0.00 90 1010.3
20260510050043 13 0 0.0 0.0 0.00 0.00 0.00 88 1010.3
20260510044548 14 0 0.0 0.0 0.00 0.00 0.00 87 1010.2
20260510043105 14 0 0.0 0.0 0.00 0.00 0.00 86 1010.5
20260510041550 14 0 0.0 0.0 0.00 0.00 0.00 86 1010.3
20260510040049 15 0 0.0 0.0 0.00 0.00 0.00 85 1010.2
20260510034540 15 0 0.0 0.0 0.00 0.00 0.00 83 1010.1
20260510033043 15 0 0.0 0.0 0.00 0.00 0.00 82 1010.0
20260510031551 16 0 0.0 0.0 0.00 0.00 0.00 80 1010.1
20260510030049 16 0 0.0 0.0 0.00 0.00 0.00 79 1010.1
20260510024544 16 0 0.0 0.0 0.00 0.00 0.00 79 1009.9
20260510023040 17 0 0.0 0.0 0.00 0.00 0.00 76 1009.8
20260510021549 17 0 0.0 0.0 0.00 0.00 0.00 74 1009.9
20260510020047 18 0 0.0 0.0 0.00 0.00 0.00 73 1009.5
20260510014541 18 0 0.0 1.6 0.00 0.00 0.00 72 1009.5
20260510013037 18 210 0.0 3.2 0.00 0.00 0.00 71 1009.2
20260510011543 18 198 3.2 9.7 0.00 0.00 0.00 70 1009.0
20260510010042 18 171 0.0 4.8 0.00 0.00 0.00 69 1008.8
20260510004542 18 0 0.0 0.0 0.00 0.00 0.00 70 1008.8
20260510003039 19 0 0.0 0.0 0.00 0.00 0.00 68 1008.7
20260510001540 20 0 0.0 0.0 0.00 0.00 0.00 67 1008.4
20260510000051 21 0 0.0 0.0 0.00 0.00 0.00 61 1008.2
20260509234547 21 0 0.0 0.0 0.00 0.00 0.00 59 1008.1
20260509233046 22 0 0.0 0.0 0.00 0.00 0.00 54 1008.1
20260509231541 23 0 0.0 4.8 0.00 0.00 0.00 52 1008.2
20260509230040 24 170 1.6 4.8 0.00 0.00 0.00 48 1008.1
20260509224550 25 0 0.0 1.6 0.00 0.00 0.00 50 1008.0
20260509223049 23 0 0.0 1.6 0.00 0.00 0.00 51 1008.2
20260509221602 24 0 0.0 8.0 0.00 0.00 0.00 49 1008.3
20260509220044 24 0 0.0 9.7 0.00 0.00 0.00 49 1008.2
20260509214542 24 186 1.6 12.9 0.00 0.00 0.00 50 1008.3
20260509213041 25 169 1.6 12.9 0.00 0.00 0.00 49 1008.3
20260509211544 25 122 1.6 11.3 0.00 0.00 0.00 48 1008.4
20260509210052 24 295 1.6 14.5 0.00 0.00 0.00 50 1008.2
20260509204551 24 165 6.4 17.7 0.00 0.00 0.00 50 1008.1
20260509203047 24 164 4.8 16.1 0.00 0.00 0.00 50 1008.1
20260509201549 24 270 0.0 8.0 0.00 0.00 0.00 51 1008.3
20260509200051 23 246 1.6 17.7 0.00 0.00 0.00 51 1008.5
20260509194546 23 172 4.8 14.5 0.00 0.00 0.00 52 1008.6
20260509193050 22 336 3.2 12.9 0.00 0.00 0.00 55 1008.9
20260509191546 22 167 1.6 11.3 0.00 0.00 0.00 56 1009.0
20260509190049 21 211 4.8 14.5 0.00 0.00 0.00 57 1009.0
20260509184548 21 297 0.0 8.0 0.00 0.00 0.00 59 1009.4
20260509183043 21 81 1.6 9.7 0.00 0.00 0.00 58 1009.8
20260509181546 20 157 0.0 11.3 0.00 0.00 0.00 59 1009.7
20260509180052 20 159 1.6 12.9 0.00 0.00 0.00 59 1010.1
20260509174542 20 0 3.2 9.7 0.00 0.00 0.00 58 1010.3
20260509173040 20 255 0.0 4.8 0.00 0.00 0.00 58 1010.3
20260509171546 20 284 1.6 9.7 0.00 0.00 0.00 57 1010.4
20260509170040 20 116 1.6 11.3 0.00 0.00 0.00 56 1010.3
20260509164554 21 175 4.8 16.1 0.00 0.00 0.00 55 1010.3
20260509163042 21 112 1.6 14.5 0.00 0.00 0.00 56 1010.4
20260509161548 20 153 3.2 14.5 0.00 0.00 0.00 57 1010.4
20260509160042 20 157 1.6 9.7 0.00 0.00 0.00 59 1010.5
20260509154546 20 140 1.6 14.5 0.00 0.00 0.00 58 1010.9
20260509153053 21 303 1.6 11.3 0.00 0.00 0.00 57 1010.8
20260509151547 21 334 1.6 12.9 0.00 0.00 0.00 57 1010.8
20260509150048 19 288 1.6 11.3 0.00 0.00 0.00 61 1011.1
20260509144540 18 214 3.2 14.5 0.00 0.00 0.00 63 1011.3
20260509143041 18 174 3.2 11.3 0.00 0.00 0.00 63 1011.4
20260509141549 17 240 1.6 12.9 0.00 0.00 0.00 65 1011.4
20260509140059 17 215 3.2 11.3 0.00 0.00 0.00 66 1011.4
20260509134615 16 178 3.2 22.5 0.00 0.00 0.00 67 1011.5
20260509133041 16 0 0.0 14.5 0.00 0.00 0.00 68 1011.6
20260509131549 16 0 0.0 8.0 0.00 0.00 0.00 69 1011.5
20260509130041 15 144 1.6 14.5 0.00 0.00 0.00 71 1011.8
20260509124539 15 315 1.6 8.0 0.00 0.00 0.00 69 1011.8
20260509123050 15 139 1.6 11.3 0.00 0.00 0.00 69 1011.6
20260509121543 15 325 1.6 12.9 0.00 0.00 0.00 69 1011.7
20260509120043 14 0 1.6 12.9 0.00 0.00 0.00 71 1011.8
20260509114544 13 209 3.2 16.1 0.00 0.00 0.00 70 1011.7
20260509113051 13 255 1.6 17.7 0.00 0.00 0.00 68 1011.7
20260509111546 13 219 3.2 12.9 0.00 0.00 0.00 66 1011.5
20260509110047 14 175 1.6 9.7 0.00 0.00 0.00 65 1011.6
20260509104542 14 175 3.2 14.5 0.00 0.00 0.00 63 1011.4
20260509103041 14 210 1.6 11.3 0.00 0.00 0.00 62 1011.4
20260509101549 14 180 1.6 11.3 0.00 0.00 0.00 62 1011.3
20260509100046 14 0 1.6 8.0 0.00 0.00 0.00 61 1011.2
20260509094546 15 194 1.6 9.7 0.00 0.00 0.00 61 1011.0
20260509093041 15 158 0.0 6.4 0.00 0.00 0.00 62 1011.1
20260509091540 14 0 1.6 11.3 0.00 0.00 0.00 62 1011.2
20260509090041 15 0 0.0 8.0 0.00 0.00 0.00 61 1011.3
20260509084550 15 195 0.0 6.4 0.00 0.00 0.00 60 1011.4